STARLINK-33805, 63590

Orbit data source: Space-Track

STARLINK-33805, 63590 is a payload satellite owned by SpaceX/Seattle (US) in LEO that was launched on Mon, 14 Apr 2025 UTC via an FALCON 9 launch vehicle from the Air Force Eastern Test Range (AFETR). Payload-class satellites include a variety of spacecraft equipped with specific instruments for various scientific and technological missions. These include communications satellites like Starlink; space stations such as the ISS; scientific satellites like the Hubble; Earth observation satellites from companies like Planet Labs, Umbra, and HawkEye 360; GPS; miniature CubeSats for education and research; and military/defense satellites.

Loading next visibility...
Identifier
63590, 2025-076X
Orbit
LEO
Country
Flag of USUS
Related business
Manufacturer
SpaceX/Seattle
Mission
Operational Commercial Communications
Bus & Motor
STARLINK V2MO, Unknown motor
Mass
575 kg wet, ~530 kg dry
Launch date (UTC)
2025-04-14 (6 months ago)
Launch vehicle
FALCON 9
Launch site
Air Force Eastern Test Range (AFETR)
Object type
Payload
Rocket body
Debris
Shape & HBR
Box + 2 Pan, 17.7 m
Radar Cross Section
36.964 m², Large (>1 m²)

Expand to show TLE details & history
Last TLE update: 20 hours ago

TLE from 20 hours ago
0 STARLINK-33805
1 63590U 25076X   25286.68470177  .00059554  00000-0  21541-2 0  9999
2 63590  43.0003  72.2517 0000705 230.3663 129.7126 15.27612876 29345
Epoch: 2025-10-13T16:25Z
TLE epoch observation values (Epoch: 2025-10-13T16:25:58.232Z)
Latitude
-0.00007°
Longitude
163.27505°
Altitude
483.035 km
Speed
7.626 km/s
True Right ascension
04h 49m 00s
True Declination
0° 00' 00"
Sunlit
Object was in full shadow at epoch
Visualization orbit readout
Latitude
Unknown
Longitude
Unknown
Altitude
Unknown
Speed
Unknown
Apparent Right ascension
Unknown
Apparent Declination
Unknown
Sunlit
N/A
Visualization observer readout
Local Sidereal Time
06:28:45
Azimuth
Unknown
Elevation
Unknown
Doppler factor
Unknown
Orbital elements
Apogee altitude
485.38 km
Perigee altitude
484.412 km
Semi-major axis
6,863.033 km
Eccentricity
0.00007
Inclination
43.0003°
RAAN
72.2517°
Arg. of periapsis
230.3663°
True anomaly
129.71881°
Mean anomaly
129.7126°
Eccentric anomaly
129.71571°
Mean motion
3.81741 °/min
Orbital period
94.3 mins
BSTAR
0.0021541
Loading maneuver chart data...
Computing Atmospheric mass density...
Loading historical data...
Loading historical data...
Loading historical data...
Loading historical data...
Loading historical data...
Loading historical data...
Loading historical data...

Documentation

Showing up to 5 results
|